ICEYE-X21 (55049 NORAD) Tracking and Keplerian Element Data

This shows tracking and keplerian element data for the satellite.

Feedback or suggestion? Click here.




ElementValue
Catalog55049
NameICEYE-X21
Epoch Orbit11611
Epoch Day35.13956372
Epoch Year2025
RAAN100.6729
Inclination97.3952
Eccentricity0.001986
Argument of Perigee66.6255
Mean Anonmoly293.7074
Mean Motion15.33911194
Decay Rate0.0002737
L11 55049U 23001AS 25035.13956372 .00027370 00000+0 82962-3 0 9998
L22 55049 97.3952 100.6729 0019860 66.6255 293.7074 15.33911194116118



Live tracking and technical data element details for ICEYE-X21 (NORAD 55049). ICEYE-X21 can be tracked NOW for your location showing map with azimuth and elevation plus other details from your city location.







IsCatalogInMostPopularTable: catalog: 55049, numindb: 45
Update: records affected: 1



GetName: 55049 ICEYE-X21

Hit Count: updated at: Wed, 18 Jun 2025 06:23:32 GMT